COSMOS 2516 (753) (41554 NORAD) Tracking and Keplerian Element Data

This shows tracking and keplerian element data for the satellite.

Feedback or suggestion? Click here.




ElementValue
Catalog41554
NameCOSMOS 2516 (753)
Epoch Orbit1984
Epoch Day350.71719484
Epoch Year2018
RAAN286.0293
Inclination64.3555
Eccentricity0.0013066
Argument of Perigee225.9602
Mean Anonmoly6.4199
Mean Motion2.13101727
Decay Rate-2.6E-07
L11 41554U 16032A 18350.71719484 -.00000026 00000-0 00000+0 0 9997
L22 41554 64.3555 286.0293 0013066 225.9602 6.4199 2.13101727 19846

Live tracking and technical data element details for COSMOS 2516 (753) (NORAD 41554). COSMOS 2516 (753) can be tracked NOW for your location showing map with azimuth and elevation plus other details from your city location.

Track the satellite on the map from your city or location and see movement details for azimuth, elevation, latitude, longitude, range, height, and movement on the map or in text.







IsCatalogInMostPopularTable: catalog: 41554, numindb: 87
Update: records affected: 1



GetName: 41554 COSMOS 2516 (753)

Hit Count: updated at: Tue, 18 Dec 2018 22:07:44 GMT